Home > Weather > Sorocaba > Past weeks

Flag for Brazil Past Weather in Sorocaba, São Paulo, Brazil — Yesterday and Last 2 Weeks

Now
64 °F

Clear.


Feels Like: 64 °F
Forecast: 55 / 78 °F
Wind: 13 mph from Southeast

Location: Campinas Aeroporto

Current Time: Jun 30, 2016 at 11:47:15 PM

Latest Report: Jun 30, 2016 at 11:00 PM


Visibility: 10 mi

Pressure: 30.27 "Hg (28.20 "Hg at 602m altitude)

Humidity: 68%

Dew Point: 54 °F

Location of SorocabaLocation

Past Weather in Sorocaba — Graph

°F

Sorocaba Temperature Yesterday

Maximum temperature yesterday: 77 °F (at 2:00 PM)
Minimum temperature yesterday: 55 °F (at 7:00 AM)
Average temperature yesterday: 66 °F

High & Low Weather Summary for the Past Weeks

 TemperatureHumidityPressure
High79 °F (Jun 17, 4:00 PM)100% (Jun 19, 4:00 AM)30.39 "Hg (Jun 19, 4:00 AM)
Low54 °F (Jun 16, 6:00 AM)31% (Jun 27, 3:00 PM)30.12 "Hg (Jun 17, 3:00 PM)
Average64 °F68%30.24 "Hg
* Reported Jun 15 10:00 PM — Jun 30 10:00 PM, Sorocaba, Weather by CustomWeather, © 2016

Note: Actual official high and low records may vary slightly from our data, if they occured in-between our weather recording intervals... More about our weather records

Advertising

Sorocaba Weather History for the Previous 24 Hours

Scroll right to see more
 ConditionsComfort  
Time TempWeatherWind HumidityBarometerVisibility
10:00 PM
Thu, Jun 30
64 °FClear.9 mph68%30.27 "Hg10 mi
9:00 PM66 °FClear.10 mph68%30.27 "Hg10 mi
8:00 PM66 °FClear.9 mph68%30.27 "Hg10 mi
7:00 PM66 °FClear.7 mph68%30.24 "Hg10 mi
6:00 PM70 °FClear.5 mph57%30.24 "Hg10 mi
5:00 PM73 °FClear.5 mph50%30.24 "Hg10 mi
4:00 PM75 °FSunny.5 mph39%30.21 "Hg10 mi
3:00 PM75 °FPassing clouds.6 mph39%30.24 "HgN/A
2:00 PM75 °FScattered clouds.8 mph39%30.27 "HgN/A
1:00 PM75 °FPassing clouds.8 mph41%30.27 "HgN/A
12:00 PM73 °FPassing clouds.7 mph44%30.33 "HgN/A
11:00 AM70 °FSunny.5 mph57%30.33 "Hg10 mi
10:00 AM68 °FSunny.7 mph60%30.36 "Hg10 mi
9:00 AM64 °FSunny.7 mph64%30.33 "Hg10 mi
8:00 AM61 °FSunny.6 mph72%30.30 "Hg10 mi
7:00 AM57 °FSunny.7 mph82%30.27 "Hg10 mi
6:00 AM59 °FSunny.10 mph77%30.24 "Hg10 mi
5:00 AM59 °FClear.9 mph77%30.24 "Hg10 mi
4:00 AM61 °FClear.8 mph77%30.24 "Hg10 mi
3:00 AM61 °FClear.7 mph77%30.24 "Hg10 mi
2:00 AM63 °FClear.7 mph73%30.24 "Hg10 mi
1:00 AM63 °FClear.8 mph73%30.27 "Hg10 mi
12:00 AM63 °FClear.7 mph73%30.27 "Hg10 mi
11:00 PM
Wed, Jun 29
64 °FClear.7 mph68%30.27 "Hg10 mi
Weather by CustomWeather, © 2016

See weather overviewHow to use our weather pages